This demonstration page uses our WeatherBlox Daily Observations layout. Learn more.

Left ArrowRight Arrow

Hourly Observations for February 22, 2022

Temp ( °F °C ) Dew Point ( °F °C ) Humidity (%) Winds ( mph kmh ) Pressure ( in mb ) Visibility ( mi km ) Precip ( " mm )
12:56 am 00:56 Cloudy with Light Freezing Drizzle 24 -4.3 21 -5.9 89 89 N 17 28 29.87 1012 4 6 0.00 0.00
1:56 am 01:56 Cloudy with Light Freezing Drizzle 24 -4.7 20 -6.4 88 88 N 16 26 29.90 1013 6 10 0.00 0.00
2:56 am 02:56 Cloudy with Light Snow 22 -5.6 18 -7.6 86 86 NNW 10 17 29.95 1014 5 8 0.00 0.00
3:56 am 03:56 Cloudy with Mist and Fog 20 -6.7 16 -8.8 85 85 N 15 24 29.96 1014 4 6 0.00 0.00
4:56 am 04:56 Cloudy with Light Snow 15 -9.2 10 -12.5 77 77 NNW 12 19 30.01 1016 3 4 0.00 0.00
5:28 am 05:28 Cloudy with Light Snow 14 -10 7 -14 73 73 NNW 15 24 30.04 1017 4 6 0.00 0.00
5:56 am 05:56 Cloudy with Light Snow 13 -10.4 6 -14.3 73 73 NNW 14 22 30.05 1018 4 6 0.00 0.00
6:26 am 06:26 Cloudy with Light Snow 12 -11 5 -15 73 73 NNW 16 26 30.07 1018 3 4 0.00 0.00
6:56 am 06:56 Cloudy with Light Snow 11 -11.8 4 -15.7 73 73 NNW 14 22 30.09 1019 3 4 0.00 0.00
7:41 am 07:41 Cloudy with Light Snow 9 -13 1 -17 72 72 NNW 15 24 30.11 1020 3 5 0.00 0.00
7:56 am 07:56 Cloudy with Light Snow 9 -12.6 2 -16.8 71 71 N 15 24 30.12 1020 8 13 0.00 0.00
8:56 am 08:56 Cloudy with Light Snow 9 -12.9 0 -17.6 68 68 NNW 14 22 30.18 1022 9 14 0.00 0.00
9:56 am 09:56 Cloudy with Blowing Snow 7 -13.8 -1 -18.3 69 69 NW 20 31 30.23 1024 3 5 0.00 0.00
10:56 am 10:56 Cloudy 6 -14.2 -3 -19.6 64 64 NNW 18 30 30.26 1025 5 8 0.00 0.00
11:56 am 11:56 Cloudy 8 -13.5 -2 -18.9 64 64 NW 20 31 30.30 1026 10 16 0.00 0.00
12:56 pm 12:56 Mostly Cloudy 8 -13.4 -2 -19 63 63 NW 18 30 30.30 1026 7 11 0.00 0.00
1:56 pm 13:56 Mostly Cloudy 10 -12.2 -1 -18.4 60 60 NNW 18 30 30.31 1026 10 16 0.00 0.00
2:56 pm 14:56 Cloudy 10 -12.1 -2 -18.9 57 57 NW 18 30 30.34 1028 10 16 0.00 0.00
3:56 pm 15:56 Partly Cloudy 10 -12.2 -3 -19.4 55 55 NNW 21 33 30.38 1029 8 13 0.00 0.00
4:56 pm 16:56 Mostly Cloudy 9 -12.7 -3 -19.3 58 58 NW 17 28 30.43 1030 10 16 0.00 0.00
5:56 pm 17:56 Mostly Cloudy 8 -13.6 -3 -19.7 60 60 NW 17 28 30.47 1032 10 16 0.00 0.00
6:56 pm 18:56 Mostly Cloudy 6 -14.3 -5 -20.4 60 60 NNW 18 30 30.52 1033 10 16 0.00 0.00
7:56 pm 19:56 Mostly Cloudy 5 -14.8 -6 -21.1 59 59 NNW 16 26 30.58 1036 10 16 0.00 0.00
9:56 pm 21:56 Mostly Cloudy 86 30 131 55 100 100 WNW 12 19 N/A 10 16 0.00 0.00
10:56 pm 22:56 Mostly Clear 3 -16 -6 -21 66 66 WNW 15 24 30.69 1039 10 16 0.00 0.00
11:56 pm 23:56 Mostly Clear 1 -17.2 -10 -23.6 58 58 NNW 17 28 30.68 1039 10 16 0.00 0.00

Powered by AerisWeather